User: anonymous   Login
Location: Unspecified
(0.0000°N, 0.0000°E)
Time: 03:34:05
(UTC+00:00)
Language:

USA 215 - Orbit

View from above orbital plane
View from above orbital plane
View from above satellite
View from above satellite

Ground track
Ground track

The orbit data is extracted from the following two-line orbital elements,

1 37162U 10046A   17345.75342408 0.00000000  00000-0  00000-0 0    06
2 37162 123.0003   6.5033 0005000 103.5365 256.4635 13.41424163    05
Epoch (UTC): 11 December 2017 18:04:55
Eccentricity: 0.0005000
inclination: 123.0003°
perigee height: 1100 km
apogee height: 1108 km
right ascension of ascending node: 6.5033°
argument of perigee: 103.5365°
revolutions per day: 13.41424163
mean anomaly at epoch: 256.4635°
orbit number at epoch: 0

The dashed part of the orbit path shows where the satellite is in the earth's shadow,  

DLR